This is the latest recevied weather packets stored in our database for station/object N3OZD-10. If no packets are shown the sender has not sent any weather packets the latest 10 day(s).
| Time | Temp. | Humidity | Pressure | Rain* | Wind** | Luminosity | Snow |
|---|---|---|---|---|---|---|---|
| 1778175740 | 16.11° C | 42% | 1009.8 hPa | 0 mm | - | - | - |
| 1778175440 | 16.11° C | 43% | 1009.9 hPa | 0 mm | - | - | - |
| 1778175140 | 16.11° C | 45% | 1009.8 hPa | 0 mm | - | - | - |
| 1778174840 | 16.11° C | 42% | 1009.7 hPa | 0 mm | - | - | - |
| 1778174540 | 16.11° C | 45% | 1009.8 hPa | 0 mm | - | - | - |
| 1778174243 | 15.56° C | 50% | 1009.9 hPa | 0 mm | - | - | - |
| 1778173940 | 15.56° C | 44% | 1010 hPa | 0 mm | - | - | - |
| 1778173640 | 15.56° C | 48% | 1010.1 hPa | 0 mm | - | - | - |
| 1778173343 | 15.56° C | 44% | 1010.1 hPa | 0 mm | - | - | - |
| 1778173040 | 15° C | 41% | 1010.4 hPa | 0 mm | - | - | - |
| 1778172740 | 15.56° C | 47% | 1010.4 hPa | 0 mm | - | - | - |
| 1778172440 | 15° C | 51% | 1010.4 hPa | 0 mm | - | - | - |
| 1778172140 | 15° C | 48% | 1010.5 hPa | 0 mm | - | - | - |
| 1778171840 | 15° C | 49% | 1010.5 hPa | 0 mm | - | - | - |
| 1778171544 | 15° C | 55% | 1010.7 hPa | 0 mm | - | - | - |
| 1778171240 | 14.44° C | 52% | 1010.8 hPa | 0 mm | - | - | - |
| 1778170940 | 14.44° C | 56% | 1010.9 hPa | 0 mm | - | - | - |
| 1778170645 | 14.44° C | 56% | 1011 hPa | 0 mm | - | - | - |
| 1778170340 | 13.89° C | 57% | 1011.1 hPa | 0 mm | - | - | - |
| 1778170040 | 13.89° C | 54% | 1011 hPa | 0 mm | - | - | - |
| 1778169746 | 13.89° C | 59% | 1011.1 hPa | 0 mm | - | - | - |
| 1778169445 | 13.89° C | 58% | 1011.3 hPa | 0 mm | - | - | - |
| 1778169140 | 13.89° C | 54% | 1011.3 hPa | 0 mm | - | - | - |
| 1778168540 | 13.33° C | 55% | 1011.4 hPa | 0 mm | - | - | - |
| 1778168240 | 13.33° C | 54% | 1011.4 hPa | 0 mm | - | - | - |
* Rain latest hour (hover to see other rain measurements)
** Current wind speed in m/s (hover to see current wind gust speed)